Eastsound, WA
on Friday, January 18, 2013

Friday
Previous Day Next Day
Daily Summary
 ActualAverage (KBLI)Record (KBLI)
Temperature
Mean Temperature °F 40°F  
Max Temperature 39°F 46°F 58°F (2005)
Min Temperature 32°F 33°F 4°F (1950)
Degree Days
Heating Degree Days 30 25  
Month to date heating degree days 473  
Cooling Degree Days 0 0  
Month to date cooling degree days 0  
Year to date cooling degree days 0  
Moisture
Dew Point 36°F   
Average Humidity 96    
Maximum Humidity 100    
Minimum Humidity 87    
Precipitation
Precipitation 0.00 in 0.15 in 1.13 in (1968)
Month to date precipitation 2.78  
Year to date precipitation 2.78  
Wind
Wind Speed 0 mph   
Max Wind Speed 5 mph   
Max Gust Speed mph   
Visibility 4 miles   
Events Fog   

Key: T is trace of precipitation, MM is missing value
Source: NWS Daily Summary
Time(PST)TemperatureDew PointHumidity Pressure Visibility Wind DirectionWind SpeedGust SpeedPrecipitationEvents Conditions
12:15 AM 32.0°F 32.0°F 100% 30.28 in 0.2 miles Calm Calm - N/A Fog Fog
12:35 AM 32.0°F 32.0°F 100% 30.28 in 0.2 miles North - - N/A Fog Fog
12:55 AM 33.8°F 33.8°F 100% 30.28 in 0.2 miles Calm Calm - N/A Fog Fog
1:15 AM 35.6°F 35.6°F 100% 30.28 in 0.5 miles Calm Calm - N/A Fog Fog
1:35 AM 33.8°F 33.8°F 100% 30.28 in 0.2 miles Calm Calm - N/A Fog Fog
1:55 AM 35.6°F 35.6°F 100% 30.28 in 0.5 miles Calm Calm - N/A Fog Fog
2:15 AM 35.6°F 35.6°F 100% 30.28 in 0.5 miles Calm Calm - N/A Fog Fog
2:35 AM 35.6°F 35.6°F 100% 30.28 in 0.2 miles Calm Calm - N/A Fog Fog
2:55 AM 35.6°F 35.6°F 100% 30.27 in 0.5 miles Calm Calm - N/A Fog Fog
3:15 AM 35.6°F 35.6°F 100% 30.28 in 0.2 miles Calm Calm - N/A Fog Fog
3:35 AM 35.6°F 35.6°F 100% 30.28 in 0.5 miles Calm Calm - N/A Fog Fog
3:55 AM 35.6°F 35.6°F 100% 30.27 in 1.2 miles Calm Calm - N/A   Overcast
4:15 AM 35.6°F 35.6°F 100% 30.27 in 4.0 miles Calm Calm - N/A   Overcast
4:35 AM 35.6°F 35.6°F 100% 30.27 in 3.0 miles Calm Calm - N/A   Overcast
4:55 AM 35.6°F 35.6°F 100% 30.27 in 4.0 miles Calm Calm - N/A   Overcast
5:15 AM 35.6°F 35.6°F 100% 30.27 in 4.0 miles Calm Calm - N/A   Overcast
5:35 AM 35.6°F 35.6°F 100% 30.26 in 4.0 miles Calm Calm - N/A   Overcast
5:55 AM 35.6°F 35.6°F 100% 30.26 in 3.0 miles Calm Calm - N/A   Overcast
6:15 AM 35.6°F 35.6°F 100% 30.26 in 3.0 miles Calm Calm - N/A   Overcast
6:55 AM 35.6°F 35.6°F 100% 30.26 in 3.0 miles Calm Calm - N/A   Overcast
7:15 AM 35.6°F 35.6°F 100% 30.26 in 3.0 miles Calm Calm - N/A   Overcast
7:35 AM 35.6°F 35.6°F 100% 30.27 in 3.0 miles Calm Calm - N/A   Overcast
7:55 AM 35.6°F 35.6°F 100% 30.27 in 3.0 miles Calm Calm - N/A   Overcast
8:15 AM 37.4°F 37.4°F 100% 30.27 in 4.0 miles North - - N/A   Overcast
8:35 AM 37.4°F 37.4°F 100% 30.28 in 3.0 miles East 4.6 mph - N/A   Overcast
8:55 AM 37.4°F 37.4°F 100% 30.29 in 3.0 miles ESE 3.5 mph - N/A   Overcast
9:15 AM 37.4°F 37.4°F 100% 30.29 in 3.0 miles Calm Calm - N/A   Overcast
9:55 AM 37.4°F 37.4°F 100% 30.29 in 5.0 miles Calm Calm - N/A   Scattered Clouds
10:15 AM 37.4°F 37.4°F 100% 30.30 in 4.0 miles Calm Calm - N/A   Mostly Cloudy
10:35 AM 37.4°F 37.4°F 100% 30.30 in 3.0 miles Calm Calm - N/A   Overcast
10:55 AM 37.4°F 37.4°F 100% 30.31 in 3.0 miles Calm Calm - N/A   Overcast
11:15 AM 37.4°F 37.4°F 100% 30.31 in 5.0 miles Calm Calm - N/A   Overcast
11:35 AM 39.2°F 37.4°F 93% 30.32 in 6.0 miles ENE 3.5 mph - N/A   Overcast
11:55 AM 37.4°F 35.6°F 93% 30.31 in 5.0 miles Calm Calm - N/A   Overcast
12:15 PM 37.4°F 35.6°F 93% 30.31 in 5.0 miles East 3.5 mph - N/A   Mostly Cloudy
12:35 PM 37.4°F 37.4°F 100% 30.30 in 5.0 miles ENE 3.5 mph - N/A   Overcast
12:55 PM 39.2°F 37.4°F 93% 30.30 in 5.0 miles Calm Calm - N/A   Overcast
1:15 PM 39.2°F 37.4°F 93% 30.30 in 5.0 miles NE 4.6 mph - N/A   Overcast
1:35 PM 39.2°F 35.6°F 87% 30.30 in 7.0 miles Calm Calm - N/A   Overcast
2:15 PM 39.2°F 35.6°F 87% 30.30 in 7.0 miles Calm Calm - N/A   Overcast
2:35 PM 39.2°F 35.6°F 87% 30.30 in 8.0 miles Calm Calm - N/A   Overcast
2:55 PM 39.2°F 35.6°F 87% 30.30 in 7.0 miles Calm Calm - N/A   Overcast
3:15 PM 39.2°F 35.6°F 87% 30.30 in 8.0 miles Calm Calm - N/A   Overcast
3:55 PM 39.2°F 35.6°F 87% 30.31 in 8.0 miles Calm Calm - N/A   Overcast
4:15 PM 39.2°F 35.6°F 87% 30.31 in 7.0 miles North 4.6 mph - N/A   Overcast
4:35 PM 39.2°F 35.6°F 87% 30.31 in 8.0 miles Calm Calm - N/A   Overcast
4:55 PM 39.2°F 35.6°F 87% 30.30 in 8.0 miles NNW 4.6 mph - N/A   Overcast
5:15 PM 39.2°F 35.6°F 87% 30.30 in 10.0 miles NNW 3.5 mph - N/A   Overcast
5:35 PM 39.2°F 35.6°F 87% 30.30 in 10.0 miles Calm Calm - N/A   Overcast
6:15 PM 39.2°F 35.6°F 87% 30.30 in 10.0 miles Calm Calm - N/A   Overcast
6:35 PM 39.2°F 35.6°F 87% 30.30 in 10.0 miles North - - N/A   Overcast
7:15 PM 39.2°F 35.6°F 87% 30.30 in 7.0 miles Calm Calm - N/A   Overcast
7:35 PM 37.4°F 37.4°F 100% 30.31 in 5.0 miles Calm Calm - N/A   Overcast
7:55 PM 37.4°F 37.4°F 100% 30.31 in 5.0 miles Calm Calm - N/A   Overcast
8:15 PM 37.4°F 37.4°F 100% 30.31 in 5.0 miles Calm Calm - N/A   Overcast
8:35 PM 37.4°F 37.4°F 100% 30.31 in 5.0 miles Calm Calm - N/A   Overcast
8:55 PM 37.4°F 37.4°F 100% 30.32 in 5.0 miles Calm Calm - N/A   Overcast
9:15 PM 37.4°F 37.4°F 100% 30.32 in 4.0 miles Calm Calm - N/A   Overcast
9:35 PM 37.4°F 35.6°F 93% 30.33 in 5.0 miles Calm Calm - N/A   Overcast
9:55 PM 37.4°F 35.6°F 93% 30.33 in 3.0 miles Calm Calm - N/A   Mostly Cloudy
10:15 PM 35.6°F 35.6°F 100% 30.34 in 3.0 miles Calm Calm - N/A   Mostly Cloudy
10:35 PM 35.6°F 35.6°F 100% 30.33 in 3.0 miles Calm Calm - N/A   Overcast
11:15 PM 37.4°F 35.6°F 93% 30.34 in 2.0 miles Calm Calm - N/A   Overcast
11:35 PM 35.6°F 35.6°F 100% 30.34 in 2.0 miles Calm Calm - N/A   Overcast
11:55 PM 35.6°F 35.6°F 100% 30.34 in 2.5 miles Calm Calm - N/A   Overcast
Moon Phase
Jan. 18 Jan. 18 Jan. 26 Feb. 03 Feb. 10
Sunrise:07:56 AM (PST) Moon Rise:10:55 AM (PST)
Sunset:04:48 PM (PST) Moon Set:12:24 AM (PST)

Copyright © 2014 The Weather Underground, Inc.